z/d,0,0,50,50,100,100,150,150,200,200,300,300,400,400,500,500,600,600,750,750,1000,1000,1250,1250,1500,1500,1750,1750,1900,1900,2000,2000
2018.11.23-01:00,1.58,221.57,1.54,229.64,1.58,230.50,1.32,235.20,1.04,233.76,.87,225.47,.88,231.09,.80,233.72,.75,233.21,.65,235.56,.49,228.53,.51,225.76,.48,226.95,.43,220.97,.46,216.96,.19,205.46
2018.11.23-02:00,1.68,223.92,1.66,232.04,1.71,231.79,1.37,233.35,1.10,230.57,.97,224.42,.93,231.07,.84,234.27,.78,233.87,.68,236.05,.51,227.86,.53,225.76,.50,226.43,.46,220.22,.50,216.89,.19,205.97
2018.11.23-03:00,1.72,224.51,1.70,232.96,1.78,232.88,1.42,231.79,1.18,228.52,1.07,224.92,.98,231.41,.87,234.29,.81,233.33,.69,234.72,.53,225.61,.55,225.48,.52,226.54,.48,221.32,.53,218.32,.19,206.93
2018.11.23-04:00,1.72,224.06,1.69,233.07,1.78,233.57,1.47,230.93,1.24,227.73,1.16,226.44,1.02,232.10,.88,233.71,.82,231.53,.69,231.53,.54,222.04,.56,224.41,.53,226.72,.49,223.42,.54,220.53,.19,208.06
2018.11.23-05:00,1.68,225.45,1.63,234.86,1.74,234.13,1.49,230.96,1.29,227.71,1.22,228.49,1.05,233.23,.89,232.77,.82,228.96,.67,226.84,.55,217.60,.56,222.11,.52,226.09,.48,225.01,.53,222.14,.18,208.27
2018.11.23-06:00,1.59,229.18,1.53,238.47,1.67,234.58,1.48,231.25,1.31,227.87,1.24,231.08,1.04,235.14,.88,232.33,.81,226.75,.66,222.07,.56,213.13,.56,218.89,.49,224.17,.45,224.93,.50,222.11,.16,206.47
2018.11.23-07:00,1.49,233.63,1.42,242.39,1.59,235.03,1.45,231.39,1.31,228.09,1.23,233.97,1.01,237.62,.86,232.65,.80,225.45,.65,218.38,.56,209.40,.55,215.49,.46,221.00,.42,222.96,.46,220.30,.15,202.87
2018.11.23-08:00,1.39,235.34,1.31,244.11,1.50,235.17,1.40,231.37,1.28,228.51,1.16,236.77,.95,239.83,.82,233.19,.76,224.70,.63,215.92,.56,207.30,.54,212.99,.44,217.52,.38,219.87,.42,217.53,.15,199.23
2018.11.23-09:00,1.30,234.58,1.23,243.04,1.42,235.08,1.35,231.37,1.25,229.22,1.07,238.82,.87,240.62,.78,233.10,.73,223.93,.62,214.25,.56,207.31,.54,212.16,.43,214.96,.37,216.90,.41,215.02,.15,197.23
2018.11.23-10:00,1.27,231.98,1.19,239.15,1.38,234.32,1.31,231.01,1.21,229.76,.97,239.50,.79,239.18,.75,232.17,.70,223.19,.62,213.55,.56,209.42,.54,213.12,.43,213.97,.37,214.95,.41,213.51,.15,197.13
2018.11.23-11:00,1.32,226.88,1.25,232.24,1.39,231.54,1.31,229.32,1.20,229.10,.91,238.42,.75,235.84,.73,231.05,.69,223.16,.62,214.81,.56,213.54,.53,215.90,.44,214.83,.38,214.58,.43,213.40,.16,198.52
2018.11.23-12:00,1.43,222.77,1.36,227.11,1.45,228.77,1.35,227.51,1.23,227.84,.88,236.51,.75,232.28,.73,230.57,.69,224.20,.63,218.13,.55,218.53,.53,219.49,.45,216.48,.41,214.64,.46,213.66,.17,200.20
2018.11.23-13:00,1.54,221.23,1.48,225.52,1.54,227.74,1.43,226.86,1.29,226.88,.90,234.86,.78,229.68,.74,230.62,.70,225.85,.65,222.28,.55,223.02,.53,222.84,.48,218.16,.45,214.66,.51,213.80,.19,201.34
2018.11.23-14:00,1.62,220.72,1.56,224.64,1.63,227.41,1.50,226.66,1.38,226.32,.95,233.44,.84,227.99,.77,230.52,.72,227.47,.66,226.11,.55,226.50,.53,225.79,.51,220.49,.50,215.74,.56,214.70,.20,202.43
2018.11.23-15:00,1.67,221.70,1.60,224.77,1.68,227.70,1.55,226.51,1.48,226.34,.99,232.22,.90,226.92,.79,229.59,.73,228.32,.65,228.60,.54,228.34,.53,227.82,.53,223.39,.53,218.05,.60,216.50,.21,203.70
2018.11.23-16:00,1.68,224.24,1.63,226.84,1.70,228.67,1.56,226.45,1.54,227.07,1.01,231.64,.95,226.41,.78,227.56,.72,227.78,.63,229.09,.52,227.93,.51,228.28,.54,226.29,.55,221.11,.62,218.82,.21,204.98
2018.11.23-17:00,1.66,226.67,1.62,228.83,1.68,229.20,1.55,226.11,1.54,228.42,.99,231.40,.96,226.24,.77,224.82,.69,225.91,.60,227.80,.49,225.48,.49,227.63,.53,229.38,.54,224.98,.61,221.74,.20,206.39
2018.11.23-18:00,1.61,229.06,1.58,230.75,1.62,229.05,1.53,225.74,1.51,229.85,.95,230.36,.95,225.59,.76,221.75,.67,222.99,.56,225.16,.46,221.37,.46,226.35,.49,232.93,.50,229.83,.57,225.42,.19,207.81
2018.11.23-19:00,1.53,232.04,1.51,233.30,1.56,228.70,1.52,226.06,1.45,230.97,.90,227.99,.93,224.41,.75,219.41,.64,220.37,.54,222.67,.43,216.82,.42,224.35,.43,236.29,.43,235.10,.49,229.27,.16,208.32
2018.11.23-20:00,1.43,235.77,1.42,236.78,1.49,229.28,1.48,227.94,1.35,232.42,.85,224.74,.90,223.72,.74,219.27,.62,219.65,.51,222.04,.41,213.30,.38,221.17,.36,237.14,.35,238.38,.40,231.04,.14,205.44
2018.11.23-21:00,1.31,238.70,1.31,239.46,1.42,230.66,1.42,230.86,1.24,234.22,.81,220.92,.87,224.38,.72,221.76,.60,221.40,.48,223.89,.39,212.28,.36,218.07,.30,233.87,.27,236.80,.32,228.18,.12,197.89
2018.11.23-22:00,1.21,238.48,1.21,239.02,1.38,231.59,1.35,233.54,1.15,235.57,.79,217.35,.85,226.47,.69,226.23,.57,224.93,.45,227.77,.37,214.60,.34,217.16,.27,227.62,.22,228.38,.27,219.39,.11,188.31
2018.11.23-23:00,1.17,233.24,1.17,233.96,1.39,230.60,1.31,234.58,1.09,235.38,.81,213.86,.84,228.81,.68,231.20,.55,228.76,.43,232.85,.36,220.94,.34,220.59,.27,223.98,.21,218.32,.27,209.82,.12,183.11
2018.11.23-24:00,1.21,225.87,1.21,227.00,1.42,228.42,1.31,234.30,1.07,234.00,.86,210.78,.86,230.46,.68,235.18,.55,231.33,.41,237.15,.35,229.74,.35,227.95,.29,225.46,.23,213.79,.30,205.15,.14,183.72
2018.11.24-01:00,1.31,220.24,1.30,221.57,1.49,226.51,1.35,233.88,1.10,232.50,.96,209.74,.92,232.10,.71,237.69,.57,232.21,.42,238.73,.35,237.22,.36,236.21,.33,229.79,.27,214.49,.34,204.92,.15,187.14
2018.11.24-02:00,1.42,217.83,1.40,219.23,1.57,226.28,1.38,233.99,1.16,231.34,1.10,211.67,1.00,235.34,.76,239.69,.62,232.62,.45,237.99,.36,240.86,.37,241.87,.35,233.74,.30,216.37,.38,205.96,.16,190.86
2018.11.24-03:00,1.52,219.15,1.49,220.72,1.64,228.40,1.39,233.70,1.22,229.65,1.25,215.21,1.08,240.32,.81,242.10,.67,233.75,.48,236.97,.38,241.26,.38,243.42,.37,235.50,.32,217.11,.42,206.57,.16,193.53
2018.11.24-04:00,1.60,223.73,1.56,225.53,1.68,231.81,1.39,231.87,1.28,227.02,1.37,219.48,1.08,245.51,.83,244.32,.70,235.19,.51,237.00,.39,240.64,.38,241.87,.38,235.07,.35,216.88,.46,206.87,.17,195.21
2018.11.24-05:00,1.64,229.42,1.59,231.36,1.64,235.47,1.40,229.77,1.32,224.83,1.40,224.59,1.02,248.99,.81,245.33,.70,235.83,.53,237.78,.40,239.99,.38,238.66,.39,233.11,.37,216.37,.50,207.25,.17,196.23
2018.11.24-06:00,1.57,234.36,1.53,236.38,1.52,238.84,1.40,228.98,1.35,224.27,1.37,229.88,.93,249.90,.77,245.41,.69,235.65,.55,238.57,.40,238.95,.37,234.21,.38,230.01,.37,215.62,.51,207.67,.17,196.18
2018.11.24-07:00,1.44,238.11,1.40,240.07,1.35,240.66,1.40,229.02,1.37,224.87,1.31,234.50,.86,249.03,.73,245.36,.67,235.16,.55,239.37,.39,237.59,.36,229.05,.36,226.08,.36,214.64,.51,208.21,.16,194.74
2018.11.24-08:00,1.29,239.66,1.26,241.27,1.19,239.45,1.37,229.01,1.37,225.90,1.22,238.38,.79,247.37,.67,245.25,.66,234.78,.54,240.65,.37,236.63,.35,224.42,.34,221.98,.33,213.75,.48,209.24,.15,191.96
2018.11.24-09:00,1.15,237.79,1.12,239.10,1.07,235.08,1.34,229.32,1.35,227.47,1.12,241.20,.72,244.86,.61,244.32,.64,234.46,.52,242.66,.36,237.06,.35,222.09,.33,219.23,.31,213.61,.45,211.11,.13,188.25
2018.11.24-10:00,1.07,232.49,1.04,233.73,1.03,229.15,1.32,230.35,1.34,229.64,1.02,242.32,.67,240.87,.55,241.09,.63,234.04,.51,245.21,.34,239.29,.35,223.33,.33,219.05,.30,214.25,.43,213.43,.12,184.57
2018.11.24-11:00,1.13,225.26,1.08,226.64,1.10,223.98,1.32,231.98,1.33,232.56,.97,242.23,.65,236.39,.52,235.86,.64,234.22,.49,248.05,.33,242.76,.35,227.67,.34,220.81,.29,214.25,.41,214.50,.12,181.06
2018.11.24-12:00,1.28,219.82,1.20,221.20,1.24,221.08,1.35,233.38,1.35,235.63,.98,241.76,.68,233.54,.54,230.90,.67,235.27,.48,250.31,.32,246.16,.36,233.73,.35,223.74,.30,213.24,.40,213.49,.13,178.45
2018.11.24-13:00,1.42,216.45,1.32,217.89,1.39,219.80,1.38,233.34,1.38,237.36,1.02,241.15,.73,232.12,.59,227.15,.72,236.54,.49,250.91,.32,248.09,.37,240.63,.37,228.53,.31,214.09,.40,212.74,.14,179.09
2018.11.24-14:00,1.49,214.52,1.39,216.18,1.51,219.78,1.42,231.85,1.39,236.99,1.06,240.02,.78,230.61,.67,224.63,.78,237.68,.50,249.65,.34,247.54,.40,246.67,.41,234.39,.34,217.73,.43,213.88,.16,182.49
2018.11.24-15:00,1.53,215.83,1.46,217.44,1.64,221.93,1.46,230.26,1.40,235.73,1.07,239.00,.82,229.43,.75,223.43,.84,238.48,.52,247.21,.35,244.23,.41,249.98,.43,238.85,.37,220.97,.45,214.96,.16,185.35
2018.11.24-16:00,1.59,220.29,1.55,221.68,1.75,226.10,1.51,229.69,1.40,234.85,1.07,238.64,.84,228.85,.82,223.78,.87,238.98,.54,244.52,.36,238.79,.40,249.91,.44,240.86,.38,222.03,.47,214.54,.17,186.17
2018.11.24-17:00,1.64,226.92,1.61,228.09,1.78,231.63,1.55,230.61,1.40,234.80,1.05,238.94,.86,228.75,.89,225.44,.90,239.16,.56,241.86,.38,232.46,.37,245.90,.41,239.75,.36,219.99,.46,211.95,.17,184.70
2018.11.24-18:00,1.60,232.83,1.57,234.00,1.70,236.47,1.55,231.90,1.39,234.76,1.01,238.74,.87,228.46,.93,227.73,.90,239.42,.57,239.43,.40,227.36,.34,239.16,.37,236.48,.32,216.38,.44,208.77,.16,181.89
2018.11.24-19:00,1.44,237.73,1.41,239.18,1.54,239.50,1.53,232.79,1.37,234.43,.97,237.14,.89,227.77,.95,229.97,.89,239.74,.55,236.86,.41,223.80,.30,231.42,.32,232.01,.27,212.16,.39,205.88,.15,177.42
2018.11.24-20:00,1.23,240.80,1.21,243.00,1.34,240.63,1.46,234.15,1.34,234.98,.92,235.04,.91,227.96,.95,232.66,.86,240.65,.53,234.64,.41,221.47,.28,222.90,.27,224.66,.22,204.39,.34,201.29,.13,169.54
2018.11.24-21:00,1.02,238.90,1.01,242.35,1.13,238.91,1.35,235.80,1.25,236.43,.87,233.30,.92,230.02,.94,236.50,.82,242.89,.51,234.10,.39,221.07,.27,214.97,.24,213.56,.20,191.76,.32,193.85,.13,159.71
2018.11.24-22:00,.92,230.48,.90,234.69,1.00,232.91,1.23,236.04,1.14,236.80,.83,230.70,.91,233.01,.91,240.93,.77,246.10,.48,234.90,.37,222.76,.26,210.55,.24,204.13,.21,182.15,.32,187.36,.14,153.85
2018.11.24-23:00,.97,220.06,.95,223.58,1.00,224.62,1.17,234.36,1.06,234.71,.84,226.75,.92,235.23,.89,244.43,.72,248.65,.45,235.63,.33,226.21,.25,210.54,.23,200.30,.22,179.32,.34,184.59,.14,153.05
2018.11.24-24:00,1.06,212.34,1.04,215.42,1.07,218.31,1.17,232.37,1.07,232.47,.92,223.33,.96,236.31,.89,246.21,.71,249.62,.44,235.32,.31,230.41,.24,213.50,.23,199.83,.23,180.25,.36,184.31,.15,155.74
2018.11.25-01:00,1.18,208.90,1.16,212.16,1.19,215.46,1.20,231.38,1.12,231.21,1.05,222.20,1.03,237.39,.91,247.15,.72,249.54,.47,233.52,.31,232.96,.24,217.07,.23,200.40,.25,183.07,.38,185.70,.16,160.18
2018.11.25-02:00,1.30,210.55,1.29,213.54,1.34,216.01,1.24,230.63,1.17,229.54,1.17,222.90,1.07,238.47,.91,247.74,.73,249.10,.51,230.59,.32,232.36,.26,220.47,.25,203.24,.28,189.23,.42,190.16,.16,166.26
2018.11.25-03:00,1.46,214.88,1.45,217.69,1.50,217.96,1.26,227.84,1.22,226.66,1.28,224.70,1.07,239.22,.89,247.80,.73,248.70,.55,227.62,.36,229.89,.30,223.69,.29,208.00,.33,197.01,.47,196.67,.17,173.19
2018.11.25-04:00,1.62,220.76,1.62,223.17,1.64,220.15,1.32,222.60,1.30,223.43,1.38,227.59,1.05,239.44,.85,246.89,.72,247.65,.59,225.35,.39,227.65,.33,225.60,.33,211.19,.37,202.32,.51,201.76,.17,178.37
2018.11.25-05:00,1.71,227.35,1.70,229.28,1.71,222.53,1.47,218.31,1.40,221.53,1.45,231.64,1.04,239.28,.82,244.87,.69,245.07,.63,223.74,.42,225.88,.35,225.04,.35,210.81,.39,203.93,.52,203.98,.17,180.63
2018.11.25-06:00,1.66,234.20,1.65,236.12,1.69,225.90,1.61,218.30,1.48,221.71,1.44,236.39,1.03,239.21,.80,242.06,.67,241.10,.66,222.52,.45,223.23,.37,221.18,.37,206.88,.40,202.85,.53,203.93,.17,180.15
2018.11.25-07:00,1.53,239.94,1.51,242.41,1.57,229.82,1.68,222.10,1.52,223.77,1.36,240.41,1.01,239.25,.78,238.90,.65,236.37,.69,221.69,.48,219.80,.39,215.42,.39,201.74,.41,200.95,.52,202.86,.17,177.16
2018.11.25-08:00,1.38,243.01,1.36,245.90,1.42,231.56,1.65,226.49,1.52,226.38,1.23,241.77,.98,238.84,.76,235.54,.64,231.14,.70,221.46,.49,217.24,.41,210.65,.41,198.24,.41,200.19,.50,202.15,.16,173.01
2018.11.25-09:00,1.15,241.62,1.13,244.63,1.25,228.32,1.54,228.71,1.44,228.12,1.08,240.31,.91,237.70,.72,231.64,.62,225.90,.69,222.20,.51,216.87,.43,209.01,.42,198.07,.40,201.89,.48,202.87,.16,170.59
2018.11.25-10:00,.94,232.67,.91,236.88,1.16,221.53,1.40,228.98,1.32,228.62,.94,236.49,.83,235.26,.68,226.24,.62,221.30,.69,223.94,.52,218.19,.45,209.69,.43,199.43,.38,204.05,.46,203.44,.15,169.12
2018.11.25-11:00,.93,220.51,.88,224.67,1.20,216.02,1.33,227.93,1.26,228.62,.88,231.01,.78,231.33,.69,220.12,.65,218.63,.69,226.61,.52,220.23,.45,211.12,.42,200.16,.34,204.05,.42,201.52,.15,165.31
2018.11.25-12:00,1.05,212.30,.98,215.30,1.30,213.52,1.32,226.21,1.24,228.61,.91,226.02,.80,226.89,.75,215.89,.72,218.59,.70,229.54,.51,222.49,.44,213.10,.39,201.18,.30,202.66,.38,197.93,.15,160.53
2018.11.25-13:00,1.22,208.56,1.14,210.00,1.46,213.61,1.33,224.98,1.24,228.27,.98,222.92,.85,222.99,.85,214.49,.80,220.45,.70,231.84,.50,224.63,.42,215.72,.38,203.92,.29,202.25,.38,195.70,.15,158.82
2018.11.25-14:00,1.37,207.15,1.30,207.48,1.59,215.33,1.32,223.05,1.24,226.90,1.05,220.85,.90,219.71,.93,215.33,.87,223.65,.69,233.38,.49,226.46,.42,219.00,.38,208.56,.31,204.59,.41,197.29,.16,162.28
2018.11.25-15:00,1.53,209.52,1.49,209.57,1.71,217.91,1.34,218.55,1.25,223.85,1.10,218.98,.94,216.80,.98,217.34,.91,227.37,.68,234.11,.48,227.52,.43,221.97,.41,212.55,.35,207.08,.47,200.27,.17,167.33
2018.11.25-16:00,1.69,214.94,1.68,215.25,1.81,220.42,1.46,214.12,1.30,219.86,1.17,217.87,.97,213.90,.99,219.24,.91,230.33,.65,233.34,.47,227.11,.43,223.90,.42,214.84,.38,208.17,.50,202.48,.18,170.87
2018.11.25-17:00,1.73,220.23,1.78,221.10,1.86,223.33,1.62,213.40,1.39,217.14,1.23,217.72,1.03,210.91,1.00,219.79,.90,231.01,.63,229.87,.47,224.41,.41,224.10,.40,215.85,.37,208.27,.49,204.00,.18,172.79
2018.11.25-18:00,1.67,225.97,1.73,226.89,1.80,227.70,1.68,215.81,1.45,216.33,1.25,217.12,1.11,208.26,1.00,218.74,.87,228.91,.62,223.70,.47,219.53,.39,221.66,.37,215.66,.33,207.95,.45,205.61,.17,173.24
2018.11.25-19:00,1.50,231.51,1.58,232.55,1.64,232.64,1.62,218.64,1.42,215.89,1.22,215.25,1.18,207.28,.99,217.27,.83,225.15,.62,216.87,.47,214.03,.37,216.49,.33,213.51,.29,206.50,.39,206.74,.15,170.46
2018.11.25-20:00,1.30,234.19,1.39,235.96,1.44,235.86,1.49,220.83,1.35,215.49,1.18,214.32,1.20,209.51,.96,217.11,.79,222.10,.62,211.94,.47,208.72,.34,207.61,.28,205.86,.24,198.78,.33,203.15,.14,162.11
2018.11.25-21:00,1.09,231.27,1.16,234.98,1.21,235.83,1.33,222.41,1.25,216.03,1.10,215.97,1.15,215.05,.90,219.20,.73,221.34,.59,209.93,.45,204.71,.33,196.32,.27,192.14,.24,184.14,.31,192.25,.14,152.97
2018.11.25-22:00,.94,222.28,.98,227.87,1.00,231.93,1.16,223.21,1.14,217.41,.98,219.06,1.03,222.05,.82,222.33,.66,221.92,.56,210.09,.44,203.14,.35,188.00,.29,180.55,.28,173.29,.33,180.39,.15,150.45
2018.11.25-23:00,.98,213.73,.98,218.52,.92,225.17,1.04,222.29,1.06,218.18,.90,220.56,.91,227.12,.75,223.64,.60,220.89,.53,210.75,.42,203.65,.35,184.47,.30,174.37,.31,168.78,.37,173.03,.16,152.56
2018.11.25-24:00,1.11,210.63,1.10,213.69,.95,219.30,1.00,219.70,1.03,217.72,.86,218.43,.81,227.54,.70,221.28,.57,216.41,.52,210.87,.40,205.87,.33,185.65,.30,174.34,.31,170.45,.38,172.11,.16,156.49
2018.11.26-01:00,1.25,210.23,1.22,212.48,1.01,215.44,1.00,216.90,1.03,217.21,.88,215.27,.74,223.96,.69,217.03,.59,210.68,.53,210.43,.38,209.31,.31,190.71,.28,180.36,.30,177.70,.38,177.13,.14,161.74
2018.11.26-02:00,1.37,211.55,1.34,213.48,1.09,213.46,1.04,215.34,1.05,217.82,.94,214.83,.73,219.60,.70,214.27,.63,207.36,.57,210.13,.38,212.60,.31,197.22,.27,189.17,.29,187.24,.38,185.06,.13,167.43
2018.11.26-03:00,1.50,215.41,1.46,217.05,1.20,213.10,1.12,214.82,1.09,218.94,.99,217.04,.75,216.97,.72,214.29,.69,207.76,.61,211.36,.40,214.99,.32,202.86,.28,196.47,.29,195.33,.38,192.57,.12,171.75
2018.11.26-04:00,1.64,221.34,1.60,222.59,1.32,213.33,1.19,214.14,1.11,219.33,1.01,219.53,.78,216.14,.72,215.90,.73,210.80,.65,214.71,.41,216.97,.35,206.81,.30,201.20,.30,201.18,.40,198.76,.11,174.45
2018.11.26-05:00,1.74,226.89,1.70,227.77,1.44,213.62,1.25,213.30,1.13,219.24,1.03,221.28,.82,216.30,.73,217.65,.77,214.81,.67,218.55,.43,218.04,.38,208.84,.32,204.54,.30,206.39,.39,204.86,.10,177.33
2018.11.26-06:00,1.77,232.38,1.73,233.09,1.56,216.15,1.34,213.63,1.17,219.75,1.05,222.97,.87,217.14,.75,218.41,.80,218.04,.69,220.64,.45,216.29,.39,208.50,.31,206.20,.28,211.41,.36,211.65,.09,181.80
2018.11.26-07:00,1.74,238.16,1.70,238.92,1.62,222.07,1.42,216.75,1.20,222.33,1.06,225.86,.91,219.76,.77,218.50,.82,220.27,.69,221.28,.46,211.94,.40,205.67,.30,203.98,.25,212.89,.32,216.74,.07,184.24
2018.11.26-08:00,1.64,243.01,1.59,243.83,1.59,229.09,1.48,222.77,1.22,226.84,1.03,229.71,.91,224.03,.78,218.36,.81,221.80,.68,221.22,.48,207.53,.42,202.49,.30,199.27,.22,209.28,.28,218.12,.06,178.99
2018.11.26-09:00,1.41,245.22,1.37,246.11,1.42,233.93,1.47,229.88,1.19,231.55,.95,232.80,.86,227.58,.77,217.57,.78,222.56,.64,220.35,.50,205.86,.43,202.46,.31,197.71,.21,206.05,.24,218.25,.05,171.21
2018.11.26-10:00,1.14,242.48,1.08,243.96,1.19,235.23,1.40,237.25,1.14,236.09,.87,235.01,.79,229.97,.77,217.35,.75,223.00,.62,219.91,.51,207.42,.44,205.07,.31,197.20,.20,199.79,.21,212.65,.04,160.73
2018.11.26-11:00,1.08,233.10,.98,234.25,1.13,231.43,1.34,242.65,1.13,239.31,.83,235.96,.75,231.28,.79,218.64,.73,223.64,.60,221.07,.51,211.15,.42,208.50,.30,194.08,.18,184.74,.17,192.97,.05,143.09
2018.11.26-12:00,1.16,226.79,1.04,226.69,1.19,227.46,1.29,244.91,1.13,240.95,.82,234.97,.73,230.85,.81,220.04,.72,223.28,.59,222.37,.50,215.53,.40,213.16,.28,192.84,.19,173.65,.17,172.84,.06,135.56
2018.11.26-13:00,1.25,222.29,1.13,221.04,1.29,225.51,1.22,245.07,1.13,242.54,.82,233.48,.73,229.40,.83,221.32,.73,221.93,.58,222.53,.50,218.84,.38,218.49,.28,197.42,.19,176.93,.18,171.65,.06,139.57
2018.11.26-14:00,1.37,219.48,1.28,217.82,1.38,225.80,1.16,243.45,1.12,244.06,.84,232.32,.76,228.09,.85,223.17,.76,221.47,.60,221.77,.50,220.01,.38,222.09,.28,204.95,.20,189.16,.19,182.36,.06,150.02
2018.11.26-15:00,1.50,221.29,1.43,219.86,1.46,228.43,1.12,237.91,1.08,241.77,.86,228.57,.82,225.56,.87,224.55,.80,222.20,.63,221.26,.52,220.10,.38,223.76,.29,212.83,.20,205.83,.19,199.39,.04,168.37
2018.11.26-16:00,1.62,225.31,1.58,224.07,1.55,230.37,1.14,228.27,1.05,235.37,.90,223.18,.89,222.80,.88,225.23,.82,223.46,.66,221.69,.53,220.32,.38,224.36,.29,219.40,.19,223.81,.19,219.39,.02,214.85
2018.11.26-17:00,1.77,230.40,1.75,229.07,1.66,232.07,1.27,220.63,1.09,229.79,.96,220.27,.96,221.83,.88,225.43,.81,224.48,.67,222.00,.54,219.91,.38,222.91,.28,221.60,.17,237.94,.18,236.58,.03,288.94
2018.11.26-18:00,1.87,235.09,1.87,233.50,1.74,233.80,1.48,218.73,1.19,226.95,1.02,219.91,1.01,221.89,.86,224.23,.79,224.02,.67,220.87,.55,218.88,.38,220.58,.25,220.70,.13,252.00,.15,255.30,.05,318.97
2018.11.26-19:00,1.89,239.30,1.92,237.69,1.76,235.31,1.67,221.95,1.30,226.45,1.06,220.60,1.03,221.79,.86,221.15,.78,221.47,.67,217.81,.54,217.46,.37,218.52,.22,218.38,.07,279.15,.11,286.25,.07,338.19
2018.11.26-20:00,1.78,243.15,1.83,241.27,1.73,236.54,1.74,227.63,1.39,227.93,1.06,221.99,1.03,221.92,.88,218.17,.78,218.28,.67,214.23,.54,215.94,.35,216.26,.18,212.84,.05,10.83,.09,341.16,.08,357.54
2018.11.26-21:00,1.57,245.77,1.63,242.87,1.66,237.85,1.71,233.41,1.42,231.19,1.01,223.93,1.00,223.11,.90,217.74,.78,216.58,.67,212.00,.52,214.56,.33,212.52,.15,198.62,.11,64.87,.12,33.56,.09,17.66
2018.11.26-22:00,1.28,245.99,1.37,241.50,1.53,239.57,1.63,238.81,1.39,235.63,.95,225.71,.94,224.88,.89,220.16,.76,216.93,.66,211.73,.49,213.59,.31,207.21,.16,179.48,.17,89.70,.16,69.36,.10,37.87
2018.11.26-23:00,1.00,238.80,1.12,233.15,1.33,238.98,1.53,243.73,1.35,240.55,.90,227.88,.88,226.82,.86,225.06,.72,219.68,.62,213.68,.44,213.49,.29,201.38,.19,167.14,.22,108.28,.21,96.15,.09,57.90
2018.11.26-24:00,.93,228.49,1.07,223.57,1.21,234.49,1.42,246.58,1.27,243.98,.88,229.09,.84,228.40,.80,230.39,.68,223.20,.59,216.50,.41,213.35,.28,195.94,.23,162.62,.27,122.17,.26,114.65,.09,76.88
2018.11.27-01:00,.99,223.16,1.16,220.04,1.22,228.62,1.31,244.26,1.18,242.16,.88,226.94,.82,227.82,.74,232.75,.65,224.23,.58,217.73,.39,212.85,.29,194.88,.24,166.80,.26,134.35,.26,128.06,.07,85.75
2018.11.27-02:00,1.12,222.61,1.31,221.38,1.31,224.76,1.27,238.41,1.13,236.43,.90,224.22,.82,225.47,.69,231.33,.63,222.66,.58,216.56,.39,211.50,.30,197.02,.22,176.54,.22,148.14,.21,141.07,.06,81.06
2018.11.27-03:00,1.25,224.91,1.44,224.15,1.41,223.76,1.27,233.53,1.15,230.54,.94,222.96,.84,224.13,.67,228.21,.63,220.44,.61,215.04,.42,209.96,.32,199.76,.21,188.48,.18,167.55,.14,160.58,.04,60.89
2018.11.27-04:00,1.40,226.78,1.56,225.78,1.49,223.55,1.30,229.78,1.21,225.05,.99,222.76,.86,224.35,.67,225.21,.64,218.54,.63,214.88,.46,209.72,.36,202.60,.21,199.39,.15,192.56,.10,195.96,.04,24.45
2018.11.27-05:00,1.55,228.79,1.71,227.49,1.58,223.65,1.37,226.71,1.34,221.73,1.05,223.73,.88,224.72,.69,222.54,.67,217.17,.65,215.66,.49,210.48,.39,204.87,.21,205.96,.14,216.04,.09,245.19,.06,.72
2018.11.27-06:00,1.66,230.69,1.82,229.29,1.68,223.57,1.46,224.62,1.48,221.24,1.10,225.18,.89,224.14,.73,220.02,.70,216.17,.66,216.81,.52,212.23,.41,207.15,.21,207.80,.12,233.98,.10,287.43,.08,353.88
2018.11.27-07:00,1.70,233.10,1.88,231.65,1.77,223.89,1.54,223.30,1.58,222.22,1.12,225.53,.90,221.62,.78,217.19,.74,214.94,.67,217.68,.53,214.77,.43,210.09,.21,207.21,.09,252.11,.12,323.72,.10,355.95
2018.11.27-08:00,1.71,235.80,1.89,234.34,1.85,226.39,1.58,223.70,1.61,224.53,1.12,224.94,.92,218.29,.83,214.94,.78,213.42,.67,217.55,.53,216.52,.44,212.30,.21,204.08,.04,284.51,.15,353.67,.11,2.88
2018.11.27-09:00,1.65,237.88,1.83,236.11,1.86,231.29,1.56,226.56,1.58,228.26,1.11,224.65,.94,216.28,.86,213.92,.80,211.87,.66,215.97,.52,216.00,.43,212.76,.21,199.86,.03,1.63,.19,13.44,.12,10.18
2018.11.27-10:00,1.41,241.46,1.60,238.18,1.74,237.69,1.48,231.23,1.48,232.50,1.09,224.94,.96,216.31,.87,213.95,.82,210.86,.66,213.35,.51,213.38,.44,212.04,.23,197.71,.04,40.56,.20,24.90,.12,15.46
2018.11.27-11:00,1.14,243.47,1.33,237.63,1.54,241.69,1.42,235.77,1.40,236.11,1.10,226.36,.99,219.18,.88,215.91,.85,212.01,.67,211.88,.51,210.89,.44,211.09,.23,193.94,.07,61.09,.22,36.58,.12,21.75
2018.11.27-12:00,.95,239.13,1.17,231.69,1.34,239.40,1.36,237.84,1.34,238.42,1.13,228.73,1.02,224.25,.89,219.68,.88,215.71,.69,213.28,.51,210.73,.42,211.13,.22,187.37,.11,74.76,.24,50.37,.12,30.76
2018.11.27-13:00,.87,231.90,1.12,224.50,1.21,233.14,1.27,237.74,1.27,239.19,1.15,231.08,1.05,228.80,.90,222.75,.91,219.57,.74,216.39,.52,212.76,.40,213.16,.23,184.26,.13,89.30,.24,64.63,.12,40.13
2018.11.27-14:00,.95,227.39,1.23,221.05,1.24,227.42,1.19,235.58,1.18,237.86,1.11,231.87,1.04,231.17,.88,223.15,.90,221.11,.78,219.40,.52,215.52,.38,217.38,.23,188.39,.12,102.50,.20,76.51,.10,44.30
2018.11.27-15:00,1.08,224.28,1.39,219.69,1.34,224.38,1.15,230.92,1.11,233.60,1.07,230.53,1.01,231.60,.87,221.44,.89,220.67,.79,221.53,.53,218.04,.38,222.77,.24,198.70,.08,114.89,.13,81.64,.08,35.00
2018.11.27-16:00,1.17,220.32,1.50,217.66,1.40,221.85,1.17,224.19,1.11,226.86,1.05,227.79,.98,231.14,.89,219.79,.90,220.13,.80,222.97,.53,219.47,.38,226.94,.23,211.29,.02,138.34,.05,51.32,.08,10.89
2018.11.27-17:00,1.28,220.07,1.64,218.66,1.50,220.69,1.27,218.87,1.18,221.05,1.07,224.82,.96,229.86,.92,218.71,.91,220.18,.80,223.70,.54,219.00,.37,228.37,.22,221.26,.03,318.49,.09,347.28,.10,354.03
2018.11.27-18:00,1.42,223.52,1.81,222.65,1.64,221.10,1.42,216.88,1.30,218.50,1.12,221.96,.94,226.81,.96,217.66,.93,220.27,.79,223.69,.55,217.71,.34,228.24,.19,228.87,.08,345.70,.18,348.71,.13,352.49
2018.11.27-19:00,1.61,226.20,1.97,227.15,1.78,222.69,1.56,218.16,1.42,219.46,1.17,219.52,.94,222.09,.99,216.71,.93,220.02,.76,222.64,.55,216.85,.32,227.12,.15,234.51,.13,7.94,.26,359.54,.15,358.89
2018.11.27-20:00,1.69,228.77,2.02,230.57,1.87,225.31,1.66,222.26,1.48,223.14,1.20,218.26,.96,217.74,1.01,216.69,.91,219.68,.72,220.43,.54,216.24,.29,223.39,.10,232.47,.17,27.34,.33,11.30,.17,7.27
2018.11.27-21:00,1.62,230.09,1.93,232.89,1.84,228.55,1.63,227.30,1.42,227.02,1.19,217.24,.99,215.25,1.00,217.65,.87,219.02,.68,217.65,.52,215.45,.26,216.38,.07,211.93,.20,43.02,.37,21.31,.18,14.62
2018.11.27-22:00,1.47,234.06,1.75,237.29,1.72,233.19,1.53,232.32,1.31,231.02,1.16,216.84,1.01,215.11,.96,218.71,.82,217.92,.65,214.41,.49,212.98,.25,204.46,.08,171.47,.21,58.95,.38,30.88,.18,21.35
2018.11.27-23:00,1.15,237.85,1.40,241.65,1.48,236.22,1.37,236.26,1.16,235.58,1.13,218.10,1.00,217.03,.90,220.25,.77,217.73,.64,212.27,.47,209.88,.27,193.68,.12,159.19,.21,75.28,.37,39.51,.18,26.70
2018.11.27-24:00,.90,233.79,1.08,238.92,1.29,233.60,1.26,237.27,1.08,237.70,1.13,220.42,1.02,220.47,.87,222.37,.75,218.12,.64,212.08,.44,207.20,.29,186.48,.15,148.66,.22,81.88,.39,45.58,.17,30.16